Home   Weather   St. Peter Port   Past weeks

Flag for Guernsey Past Weather in St. Peter Port, Guernsey — Yesterday and Last 2 Weeks

59 °F

Passing clouds.

Feels Like: 59 °F
Forecast: 55 / 61 °F
Wind: 2 mph from North

Location: Guernsey Airport

Current Time: Oct 25, 2016 at 11:17:28 AM

Latest Report: Oct 25, 2016 at 10:20 AM

Visibility: N/A

Pressure: 30.18 "Hg

Humidity: 94%

Dew Point: 57 °F

Location of St. Peter PortLocation

Past Weather in St. Peter Port — Graph


St. Peter Port Temperature Yesterday

Maximum temperature yesterday: 59 °F (at 12:50 PM)
Minimum temperature yesterday: 54 °F (at 3:50 AM)
Average temperature yesterday: 56 °F

High & Low Weather Summary for the Past Weeks

High63 °F (Oct 16, 1:50 PM)100% (Oct 23, 7:20 PM)30.30 "Hg (Oct 23, 7:20 PM)
Low46 °F (Oct 21, 9:20 PM)51% (Oct 13, 1:50 PM)29.62 "Hg (Oct 14, 1:50 PM)
Average54 °F78%29.97 "Hg
* Reported Oct 10 10:20 AM — Oct 25 10:20 AM, St. Peter Port, Weather by CustomWeather, © 2016

Note: Actual official high and low records may vary slightly from our data, if they occured in-between our weather recording intervals... More about our weather records


St. Peter Port Weather History for the Previous 24 Hours

Scroll right to see more
Time TempWeatherWind HumidityBarometerVisibility
10:20 AM
Tue, Oct 25
59 °FPassing clouds.2 mph94%30.18 "HgN/A
9:50 AM57 °FPassing clouds.No wind100%30.15 "HgN/A
9:20 AM57 °FPassing clouds.No wind100%30.15 "HgN/A
8:50 AM55 °FPassing clouds.No wind94%30.15 "HgN/A
8:20 AM54 °FFog.No wind100%30.12 "HgN/A
7:50 AM54 °FFog.2 mph100%30.12 "HgN/A
7:20 AM54 °FFog.3 mph100%30.09 "HgN/A
6:50 AM54 °FFog.2 mph100%30.09 "HgN/A
6:20 AM54 °FFog.2 mph100%30.09 "HgN/A
5:50 AM54 °FFog.1 mph100%30.09 "HgN/A
5:20 AM54 °FFog.3 mph94%30.07 "HgN/A
4:50 AM54 °FFog.2 mph100%30.07 "HgN/A
4:20 AM54 °FPassing clouds.5 mph100%30.07 "HgN/A
3:50 AM54 °FPassing clouds.5 mph100%30.07 "HgN/A
9:20 PM
Mon, Oct 24
54 °FPassing clouds.5 mph94%29.98 "HgN/A
8:50 PM54 °FPassing clouds.5 mph100%29.95 "HgN/A
8:20 PM54 °FPassing clouds.3 mph100%29.95 "HgN/A
7:50 PM54 °FPassing clouds.5 mph94%29.95 "HgN/A
7:20 PM55 °FPassing clouds.3 mph94%29.92 "HgN/A
6:50 PM55 °FSprinkles. Passing clouds.2 mph94%29.92 "HgN/A
6:20 PM55 °FScattered showers. Passing clouds.2 mph94%29.92 "HgN/A
5:50 PM57 °FPassing clouds.No wind88%29.89 "HgN/A
5:20 PM57 °FPassing clouds.No wind88%29.89 "HgN/A
4:50 PM57 °FPassing clouds.2 mph88%29.89 "HgN/A
4:20 PM59 °FPassing clouds.5 mph82%29.86 "HgN/A
3:50 PM59 °FScattered clouds.5 mph82%29.86 "HgN/A
3:20 PM57 °FScattered clouds.5 mph88%29.86 "HgN/A
2:50 PM57 °FScattered clouds.7 mph88%29.86 "HgN/A
2:20 PM57 °FScattered clouds.8 mph88%29.83 "HgN/A
1:50 PM59 °FPassing clouds.9 mph82%29.83 "HgN/A
1:20 PM59 °FPassing clouds.9 mph88%29.83 "HgN/A
12:50 PM59 °FPassing clouds.9 mph94%29.83 "HgN/A
12:20 PM57 °FScattered clouds.10 mph94%29.83 "HgN/A
11:50 AM55 °FPartly sunny.9 mph100%29.83 "HgN/A
11:20 AM55 °FLight rain. Broken clouds.9 mph100%29.80 "HgN/A
Weather by CustomWeather, © 2016

See weather overviewHow to use our weather pages